FWS9458 Weather Reports


Display with metric or nautical units.
time (UTC)temp
F
wind
direction
speed
MPH
gust
MPH
rain 1hr
in
rain 24hr
in
rain mn
in
humidity
%
barometer
mb
20260507122104 67 182 11.0 20.0 0.00 0.00 0.00 43 1010.9
20260507121804 70 197 6.0 15.0 0.00 0.00 0.00 44 1010.8
20260507121504 67 186 10.0 22.0 0.00 0.00 0.00 43 1010.8
20260507121205 67 191 9.0 22.0 0.00 0.00 0.00 46 1011.0
20260507120904 67 183 6.0 22.0 0.00 0.00 0.00 44 1011.0
20260507120604 68 173 13.0 22.0 0.00 0.00 0.00 45 1011.0
20260507120304 68 172 4.0 18.0 0.00 0.00 0.00 43 1010.8
20260507120004 67 175 10.0 18.0 0.00 0.00 0.00 43 1011.1
20260507115404 66 191 10.0 17.0 0.00 0.00 0.00 44 1011.1
20260507115104 66 213 8.0 17.0 0.00 0.00 0.00 46 1011.4
20260507114804 66 222 10.0 15.0 0.00 0.00 0.00 45 1011.2
20260507114505 65 218 6.0 15.0 0.00 0.00 0.00 48 1011.2
20260507114204 65 187 3.0 15.0 0.00 0.00 0.00 48 1011.2
20260507113904 64 181 4.0 15.0 0.00 0.00 0.00 47 1011.3
20260507113604 66 177 11.0 21.0 0.00 0.00 0.00 45 1011.3
20260507113304 66 177 7.0 23.0 0.00 0.00 0.00 46 1011.1
20260507112704 65 174 9.0 23.0 0.00 0.00 0.00 46 1011.3
20260507112404 67 172 8.0 21.0 0.00 0.00 0.00 49 1011.2
20260507112104 66 166 13.0 21.0 0.00 0.00 0.00 46 1011.0
20260507111804 67 134 4.0 18.0 0.00 0.00 0.00 48 1011.2
20260507111506 66 135 4.0 9.0 0.00 0.00 0.00 48 1011.0
20260507111204 64 128 4.0 18.0 0.00 0.00 0.00 51 1011.1
20260507110604 63 154 4.0 25.0 0.00 0.00 0.00 50 1011.3
20260507110304 64 155 15.0 25.0 0.00 0.00 0.00 51 1011.2
20260507110005 64 153 18.0 25.0 0.00 0.00 0.00 50 1011.4
20260507105703 64 156 8.0 21.0 0.00 0.00 0.00 49 1011.3
20260507105404 64 138 10.0 21.0 0.00 0.00 0.00 50 1011.4
20260507105104 65 151 8.0 21.0 0.00 0.00 0.00 52 1011.5
20260507104505 65 168 6.0 16.0 0.00 0.00 0.00 50 1011.3
20260507104204 64 173 5.0 16.0 0.00 0.00 0.00 52 1011.5
20260507103904 64 173 12.0 16.0 0.00 0.00 0.00 49 1011.4
20260507103604 63 171 5.0 16.0 0.00 0.00 0.00 51 1011.3
20260507103304 64 165 8.0 16.0 0.00 0.00 0.00 53 1011.3
20260507103004 64 161 7.0 16.0 0.00 0.00 0.00 51 1011.3
20260507102403 64 145 5.0 20.0 0.00 0.00 0.00 51 1011.3
20260507102104 63 140 6.0 20.0 0.00 0.00 0.00 51 1011.6
20260507101804 64 118 15.0 20.0 0.00 0.00 0.00 51 1011.3
20260507101204 63 103 6.0 11.0 0.00 0.00 0.00 56 1011.3
20260507100603 62 112 4.0 14.0 0.00 0.00 0.00 58 1011.3
20260507100304 62 119 5.0 14.0 0.00 0.00 0.00 58 1011.4
20260507095704 62 140 10.0 15.0 0.00 0.00 0.00 57 1011.2
20260507095404 62 126 4.0 15.0 0.00 0.00 0.00 57 1011.5
20260507095104 61 131 11.0 15.0 0.00 0.00 0.00 57 1011.2
20260507094505 63 125 4.0 13.0 0.00 0.00 0.00 57 1011.0
20260507094204 62 133 4.0 13.0 0.00 0.00 0.00 58 1011.1
20260507093304 62 119 5.0 8.0 0.00 0.00 0.00 58 1011.2